[TLELIST]

Mailing List Information:

  • This mailing list is a public mailing list - anyone may join or leave, at any time.

  • This mailing list is announce-only.

International Space Station (ISS) / Hubble Space Telescope (HST) / Chandra X-Ray Observatory Orbital Data via EMAIL

Privacy Policy:

Private list

Archives:

[TLELIST] Current TLEs

Sent January 21st 2019

HST 1 20580U 90037B 19020.70419666 +.00000346 +00000-0 +10123-4 0 9999 2 20580 028.4694 117.0627 0002627 326.0240 168.9170 15.09160325378279 ISS (ZARYA) 1 25544U 98067A 19020.97600693 +.00001900 +00000-0 +37139-4 0 9999 2 25544 051.6421 013.4042 0004655 291.9336 159.6203 15.53167861152386 CXO 1 25867U 99040B 19021.13108304 .00000634 00000-0 00000+0 0 9995 2 25867 69.3459 278.6999 7048872 237.0980 0.0264 0.37801155 18259 ____________________________________________________________________ These 2-Line ...

[TLELIST] Current TLEs

Sent January 20th 2019

HST 1 20580U 90037B 19019.71171758 .00000350 00000-0 10344-4 0 9995 2 20580 28.4692 123.6248 0002588 314.9443 177.1957 15.09159988378218 ISS (ZARYA) 1 25544U 98067A 19020.40714528 .00001167 00000-0 25685-4 0 9998 2 25544 51.6428 16.2369 0004655 289.2262 219.4846 15.53163963152291 CXO 1 25867U 99040B 19021.13108304 .00000634 00000-0 00000+0 0 9995 2 25867 69.3459 278.6999 7048872 237.0980 0.0264 0.37801155 18259 ____________________________________________________________________ These 2-Line ...

[TLELIST] Current TLEs

Sent January 19th 2019

HST 1 20580U 90037B 19018.57921983 +.00000369 +00000-0 +11526-4 0 9994 2 20580 028.4691 131.1126 0002549 302.0998 145.0154 15.09159690377959 ISS (ZARYA) 1 25544U 98067A 19019.37664884 .00024711 00000-0 39268-3 0 9992 2 25544 51.6407 21.3671 0004275 282.2343 220.7593 15.53167325152135 CXO 1 25867U 99040B 19021.13108304 .00000634 00000-0 00000+0 0 9995 2 25867 69.3459 278.6999 7048872 237.0980 0.0264 0.37801155 18259 ____________________________________________________________________ These 2-Line ...

[TLELIST] Current TLEs

Sent January 18th 2019

HST 1 20580U 90037B 19017.58663862 +.00000362 +00000-0 +11113-4 0 9998 2 20580 028.4690 137.6753 0002521 290.8456 152.9152 15.09159282377804 ISS (ZARYA) 1 25544U 98067A 19018.41142683 .00000549 00000-0 15695-4 0 9996 2 25544 51.6427 26.1689 0002435 308.1650 193.5894 15.53768231151980 CXO 1 25867U 99040B 19021.13108304 .00000634 00000-0 00000+0 0 9995 2 25867 69.3459 278.6999 7048872 237.0980 0.0264 0.37801155 18259 ____________________________________________________________________ These 2-Line ...

[TLELIST] Current TLEs

Sent January 17th 2019

HST 1 20580U 90037B 19017.10520833 .00000362 00000-0 11113-4 0 9996 2 20580 28.4690 140.8583 0002512 285.5507 57.4290 15.09159102377813 ISS (ZARYA) 1 25544U 98067A 19017.26000000 .00000372 00000-0 12996-4 0 9999 2 25544 51.6423 31.9060 0002435 301.3014 235.6064 15.53765168151806 CXO 1 25867U 99040B 19018.48675336 .00000676 00000-0 00000+0 0 9999 2 25867 69.3764 278.7550 7042545 237.1479 0.0707 0.37797968 18244 ____________________________________________________________________ These 2-Line ...

[TLELIST] Current TLEs

Sent January 16th 2019

HST 1 20580U 90037B 19015.81064604 .00000347 00000-0 10167-4 0 9992 2 20580 28.4687 149.4176 0002498 270.3404 225.3809 15.09158529377626 ISS (ZARYA) 1 25544U 98067A 19016.36123843 .00000571 00000-0 16035-4 0 9999 2 25544 51.6418 36.3841 0002421 295.9964 250.3109 15.53764170151663 CXO 1 25867U 99040B 19018.48675336 .00000676 00000-0 00000+0 0 9999 2 25867 69.3764 278.7550 7042545 237.1479 0.0707 0.37797968 18244 ____________________________________________________________________ These 2-Line ...

[TLELIST] Current TLEs

Sent January 15th 2019

HST 1 20580U 90037B 19014.82207953 +.00000355 +00000-0 +10698-4 0 9996 2 20580 028.4685 155.9538 0002500 258.7438 255.4819 15.09158248377385 ISS (ZARYA) 1 25544U 98067A 19015.38676021 .00000455 00000-0 14266-4 0 9996 2 25544 51.6418 41.2402 0002387 290.9460 200.9574 15.53761690151513 CXO 1 25867U 99040B 19013.19974141 +.00000696 +00000-0 +00000-0 0 9991 2 25867 069.4116 278.8358 7033609 237.2900 000.2824 00.37803654007086 ____________________________________________________________________ These 2-Line ...

[TLELIST] Current TLEs

Sent January 14th 2019

HST 1 20580U 90037B 19013.82573542 +.00000363 +00000-0 +11157-4 0 9995 2 20580 028.4683 162.5415 0002500 247.1910 243.2009 15.09157951377238 ISS (ZARYA) 1 25544U 98067A 19014.43511574 .00000427 00000-0 13828-4 0 9994 2 25544 51.6422 45.9823 0002411 287.2993 278.0148 15.53759865151361 CXO 1 25867U 99040B 19013.19974141 +.00000696 +00000-0 +00000-0 0 9991 2 25867 069.4116 278.8358 7033609 237.2900 000.2824 00.37803654007086 ____________________________________________________________________ These 2-Line ...

[TLELIST] Current TLEs

Sent January 13th 2019

HST 1 20580U 90037B 19012.83318729 .00000374 00000-0 11851-4 0 9992 2 20580 28.4682 169.1042 0002522 235.7222 251.5015 15.09157682377172 ISS (ZARYA) 1 25544U 98067A 19013.40141204 .00000341 00000-0 12525-4 0 9997 2 25544 51.6424 51.1339 0002412 283.1137 256.3100 15.53757457151205 CXO 1 25867U 99040B 19013.19974141 +.00000696 +00000-0 +00000-0 0 9991 2 25867 069.4116 278.8358 7033609 237.2900 000.2824 00.37803654007086 ____________________________________________________________________ These 2-Line ...

[TLELIST] Current TLEs

Sent January 12th 2019

HST 1 20580U 90037B 19011.90898479 +.00000362 +00000-0 +11078-4 0 9992 2 20580 028.4680 175.2150 0002543 225.1874 270.9243 15.09157275376947 ISS (ZARYA) 1 25544U 98067A 19012.43839120 .00000720 00000-0 18323-4 0 9993 2 25544 51.6423 55.9307 0002353 278.1967 270.9809 15.53757255151057 CXO 1 25867U 99040B 19013.19974141 +.00000696 +00000-0 +00000-0 0 9991 2 25867 069.4116 278.8358 7033609 237.2900 000.2824 00.37803654007086 ____________________________________________________________________ These 2-Line ...

< < Previous

Index

 

this list's archives:

(archive rss , atom rss/atom )

Administration